This demonstration page uses our WeatherBlox Daily Observations layout. Learn more.

Left ArrowRight Arrow

39.29038, -76.61219

Hourly Observations for September 10, 2020

Temp ( °F °C ) Dew Point ( °F °C ) Humidity (%) Winds ( mph kmh ) Pressure ( in mb ) Visibility ( mi km ) Precip ( " mm )
12:54 am 00:54 Cloudy 76 24.4 73 22.8 91 91 ENE 8 13 30.24 1024 10 16 0.00 0.00
1:54 am 01:54 Cloudy 76 24.4 73 22.8 91 91 NE 7 11 30.23 1024 10 16 0.00 0.00
2:54 am 02:54 Cloudy 76 24.4 73 22.8 91 91 E 7 11 30.22 1023 7 11 0.00 0.00
3:54 am 03:54 Cloudy 76 24.4 73 22.8 91 91 ENE 8 13 30.20 1023 7 11 0.00 0.00
4:54 am 04:54 Cloudy 76 24.4 73 22.8 91 91 ENE 9 15 30.20 1023 10 16 0.00 0.00
5:54 am 05:54 Cloudy 76 24.4 73 22.8 91 91 E 7 11 30.21 1023 10 16 0.00 0.00
6:13 am 06:13 Cloudy 75 23.9 73 22.8 94 94 E 7 11 30.20 1023 7 11 0.00 0.00
6:54 am 06:54 Cloudy 75 23.9 73 22.8 94 94 E 8 13 30.21 1023 7 11 0.00 0.00
7:43 am 07:43 Cloudy with Mist and Fog 76 24.4 74 23.3 94 94 E 7 11 30.21 1023 2 3 0.00 0.00
7:54 am 07:54 Cloudy with Mist and Fog 76 24.4 74 23.3 94 94 E 7 11 30.21 1023 2 3 0.00 0.00
8:34 am 08:34 Cloudy with Light Rain 76 24.4 74 23.3 94 94 ESE 7 11 30.20 1023 2 2 0.04 1.02
8:54 am 08:54 Cloudy with Rain 75 23.9 73 22.8 94 94 ENE 7 11 30.21 1023 1 2 0.15 3.81
9:08 am 09:08 Cloudy with Mist and Fog 76 24.4 73 22.8 91 91 ENE 7 11 30.20 1023 4 6 0.00 0.00
9:54 am 09:54 Cloudy with Mist and Fog 77 25 75 23.9 94 94 E 7 11 30.21 1023 6 10 0.00 0.00
10:54 am 10:54 Cloudy with Drizzle 78 25.6 75 23.9 90 90 ESE 9 15 30.21 1023 4 6 0.00 0.00
11:02 am 11:02 Cloudy with Mist and Fog 78 25.6 75 23.9 90 90 SE 7 11 30.20 1023 6 10 0.00 0.00
11:54 am 11:54 Cloudy 81 27.2 75 23.9 82 82 ENE 3 6 30.19 1022 7 11 0.00 0.00
12:54 pm 12:54 Cloudy 81 27.2 75 23.9 82 82 E 10 17 30.16 1021 10 16 0.00 0.00
1:54 pm 13:54 Cloudy 79 26.1 75 23.9 88 88 E 9 15 30.15 1021 10 16 0.01 0.25
2:54 pm 14:54 Cloudy with Light Rain 78 25.6 75 23.9 90 90 E 6 9 30.15 1021 5 8 0.04 1.02
3:30 pm 15:30 Cloudy with Light Rain 77 25 75 23.9 94 94 Calm 30.13 1020 6 10 0.04 1.02
3:47 pm 15:47 Mostly Cloudy with Rain 78 25.6 75 23.9 90 90 ENE 5 7 30.12 1020 4 6 0.06 1.52
3:54 pm 15:54 Mostly Cloudy with Rain 78 25.6 75 23.9 90 90 NE 6 9 30.12 1020 4 6 0.08 2.03
4:04 pm 16:04 Cloudy with Rain 78 25.6 76 24.4 93 93 VRB 3 6 30.12 1020 5 8 0.02 0.51
4:54 pm 16:54 Cloudy 79 26.1 76 24.4 90 90 ENE 5 7 30.13 1020 10 16 0.07 1.78
5:44 pm 17:44 Cloudy 80 26.7 75 23.9 85 85 E 3 6 30.11 1020 10 16 0.00 0.00
5:54 pm 17:54 Cloudy 80 26.7 75 23.9 85 85 Calm 30.12 1020 10 16 0.00 0.00
6:14 pm 18:14 Cloudy with Light Rain 80 26.7 76 24.4 87 87 N 3 6 30.11 1020 3 5 0.01 0.25
6:19 pm 18:19 Cloudy with Light Rain 79 26.1 76 24.4 90 90 N 5 7 30.11 1020 3 5 0.02 0.51
6:54 pm 18:54 Cloudy with Rain 78 25.6 75 23.9 90 90 NNW 12 19 30.11 1020 1 2 0.11 2.79
7:05 pm 19:05 Cloudy with Rain 76 24.4 74 23.3 94 94 NNW 8 13 30.10 1019 2 3 0.14 3.56
7:13 pm 19:13 Mostly Cloudy with Light Rain 76 24.4 74 23.3 94 94 NNW 7 11 30.10 1019 4 6 0.14 3.56
7:54 pm 19:54 Mostly Cloudy 77 25 74 23.3 90 90 N 5 7 30.11 1020 10 16 0.17 4.32
8:54 pm 20:54 Mostly Cloudy 77 25 75 23.9 94 94 ENE 5 7 30.11 1020 10 16 0.00 0.00
9:03 pm 21:03 Mostly Cloudy 77 25 75 23.9 94 94 NE 5 7 30.11 1020 10 16 0.00 0.00
9:12 pm 21:12 Mostly Cloudy 78 25.6 75 23.9 90 90 NE 7 11 30.11 1020 10 16 0.00 0.00
9:54 pm 21:54 Mostly Cloudy 78 25.6 75 23.9 90 90 NNE 3 6 30.12 1020 10 16 0.00 0.00
10:17 pm 22:17 Cloudy 77 25 75 23.9 94 94 N 5 7 30.11 1020 10 16 0.00 0.00
10:54 pm 22:54 Cloudy 77 25 75 23.9 94 94 N 5 7 30.11 1020 10 16 0.00 0.00
11:54 pm 23:54 Cloudy 77 25 75 23.9 94 94 Calm 30.10 1019 10 16 0.00 0.00

Powered by AerisWeather